DW2802 Ogijares ES current weather conditions

sailwx.info

Wind from 246 at 1 knots gusting 4

Air temperature 6.1° C
Dewpoint -2.0° C

Last reported at 2017-Mar-23 19:55 UTC.
Time now 2017-Mar-23 20:26 UTC

Location: N 37°07' W 003°36'.
View on Google Maps.

See reports from other nearby stations

  
Tides and Currents Weather Stations Pressure Air Temp Water Temp Dewpoint Dewpoint Depression Visibility Wind Speed Wind Dir Waves Ship Positions
date/time (UTC)wind fromknots sea level pressurealtimeterstation pressurevisibilityair tempwater tempwave heightnotes
2017-Mar-23 19:55 246 1 gusting 4 6.1
2017-Mar-23 19:40 253 1 gusting 4 6.1
2017-Mar-23 19:25 253 2 gusting 4 6.7
2017-Mar-23 19:10 259 3 gusting 7 6.7
2017-Mar-23 18:55 258 2 gusting 6 7.2
2017-Mar-23 18:40 260 4 gusting 9 7.2
2017-Mar-23 18:25 256 5 gusting 9 7.2
2017-Mar-23 18:10 304 5 gusting 11 7.8
2017-Mar-23 17:55 282 6 gusting 11 8.3
2017-Mar-23 17:40 308 5 gusting 11 8.3
2017-Mar-23 17:25 257 3 gusting 11 8.9
2017-Mar-23 17:09 298 6 gusting 13 8.3
2017-Mar-23 16:54 292 7 gusting 16 9.4
2017-Mar-23 16:39 268 10 gusting 17 9.4
2017-Mar-23 16:24 294 7 gusting 17 9.4
2017-Mar-23 16:09 322 5 gusting 15 9.4
2017-Mar-23 15:54 259 6 gusting 14 8.9
2017-Mar-23 15:39 302 6 gusting 14 8.9
2017-Mar-23 15:24 279 4 gusting 10 8.3
2017-Mar-23 15:09 282 6 gusting 17 8.9
2017-Mar-23 14:54 343 7 gusting 13 8.3
2017-Mar-23 14:39 251 8 gusting 14 8.3
2017-Mar-23 14:24 252 9 gusting 18 8.3
2017-Mar-23 14:09 283 5 gusting 13 8.3
2017-Mar-23 13:54 338 6 gusting 13 8.3
2017-Mar-23 13:39 297 7 gusting 13 8.3
2017-Mar-23 13:24 306 4 gusting 11 8.3
2017-Mar-23 13:09 301 4 gusting 7 8.9
2017-Mar-23 12:54 005 6 gusting 11 8.3
2017-Mar-23 12:39 318 0 gusting 12 8.3
2017-Mar-23 12:24 290 5 gusting 12 7.8
2017-Mar-23 12:09 278 6 gusting 13 7.8
2017-Mar-23 11:54 315 3 gusting 13 7.8
2017-Mar-23 11:39 310 5 gusting 12 7.8
2017-Mar-23 11:24 340 4 gusting 12 7.2
2017-Mar-23 11:09 275 6 gusting 8 7.2
2017-Mar-23 10:54 252 0 gusting 8 7.2
2017-Mar-23 10:39 261 4 gusting 7 6.7
2017-Mar-23 10:24 239 2 gusting 6 6.7
2017-Mar-23 10:09 306 2 gusting 8 6.7
2017-Mar-23 09:54 329 0 gusting 5 6.7
2017-Mar-23 09:39 327 2 gusting 5 5.6
2017-Mar-23 09:24 324 1 gusting 6 5.0
2017-Mar-23 09:08 290 3 gusting 8 4.4
2017-Mar-23 08:53 313 1 gusting 6 4.4
2017-Mar-23 08:38 295 4 gusting 7 3.9
2017-Mar-23 08:23 315 2 gusting 4 3.9
2017-Mar-23 08:08 319 2 gusting 4 3.3
2017-Mar-23 07:53 319 3.3
2017-Mar-23 07:38 319 2.8
2017-Mar-23 07:23 318 1 gusting 2 2.2
2017-Mar-23 07:08 318 2.2
2017-Mar-23 06:53 318 1 gusting 5 2.2
2017-Mar-23 06:38 319 1 gusting 7 2.2
2017-Mar-23 06:23 326 2 gusting 5 2.8
2017-Mar-23 06:08 326 1 gusting 4 3.3
2017-Mar-23 05:53 332 2 gusting 4 3.3
2017-Mar-23 05:38 340 3 gusting 6 3.9
2017-Mar-23 05:23 332 2 gusting 6 3.9
2017-Mar-23 05:08 346 3 gusting 7 4.4
2017-Mar-23 04:52 028 3 gusting 8 4.4
2017-Mar-23 04:37 019 2 gusting 6 4.4
2017-Mar-23 04:22 030 1 gusting 3 4.4
2017-Mar-23 04:07 030 1 gusting 5 4.4
2017-Mar-23 03:52 033 4 gusting 7 4.4
2017-Mar-23 03:37 013 4 gusting 10 4.4
2017-Mar-23 03:22 011 5 gusting 8 4.4
2017-Mar-23 03:07 348 4 gusting 13 5.0
2017-Mar-23 02:52 333 2 gusting 4 5.0
2017-Mar-23 02:37 331 0 gusting 4 5.0
2017-Mar-23 02:22 331 5.6
2017-Mar-23 02:07 331 2 gusting 4 5.6
2017-Mar-23 01:52 331 2 gusting 7 5.6
2017-Mar-23 01:37 327 3 gusting 7 5.6
2017-Mar-23 01:22 300 4 gusting 6 6.1
2017-Mar-23 01:07 284 6.1
2017-Mar-23 00:52 284 6.1
2017-Mar-23 00:37 284 6.1
2017-Mar-23 00:22 284 3 gusting 6 6.1
2017-Mar-23 00:07 296 5 gusting 7 6.1
2017-Mar-22 23:52 293 4 gusting 9 6.1
2017-Mar-22 23:37 293 4 gusting 6 6.1
2017-Mar-22 23:22 261 2 gusting 8 6.1
2017-Mar-22 23:07 235 5 gusting 13 6.1
2017-Mar-22 22:52 228 4 gusting 12 6.7
2017-Mar-22 22:37 247 6 gusting 11 6.7
2017-Mar-22 22:22 275 11 gusting 19 6.7
2017-Mar-22 22:07 269 6 gusting 19 7.2
2017-Mar-22 21:52 315 8 gusting 17 8.9
2017-Mar-22 21:37 340 2 gusting 6 8.9
2017-Mar-22 21:22 247 1 gusting 4 8.9
2017-Mar-22 21:07 246 8.3
2017-Mar-22 20:52 246 7.8
2017-Mar-22 20:37 246 7.8
2017-Mar-22 20:22 246 7.8
2017-Mar-22 20:07 246 1 gusting 3 7.8
2017-Mar-22 19:51 254 1 gusting 3 7.8
2017-Mar-22 19:37 288 2 gusting 3 8.9
2017-Mar-22 19:22 290 0 gusting 3 9.4
2017-Mar-22 19:06 290 9.4
2017-Mar-22 18:52 290 3 gusting 6 9.4
2017-Mar-22 18:37 290 1 gusting 6 10.0
2017-Mar-22 18:22 302 3 gusting 8 10.0
2017-Mar-22 18:07 302 1 gusting 9 10.6
2017-Mar-22 17:51 297 4 gusting 9 11.1
2017-Mar-22 17:36 318 6 gusting 12 11.1
2017-Mar-22 17:21 277 6 gusting 15 11.7
2017-Mar-22 17:07 290 6 gusting 13 11.7
2017-Mar-22 16:51 317 7 gusting 12 11.7
2017-Mar-22 16:36 270 4 gusting 9 12.2
2017-Mar-22 16:21 321 6 gusting 13 12.2
2017-Mar-22 16:06 299 6 gusting 11 12.2
2017-Mar-22 15:51 318 2 gusting 9 11.7
2017-Mar-22 15:36 292 4 gusting 18 11.7
2017-Mar-22 15:21 301 10 gusting 15 11.7
2017-Mar-22 15:06 249 7 gusting 16 11.7
2017-Mar-22 14:51 244 6 gusting 15 11.7
2017-Mar-22 14:36 302 8 gusting 16 12.2
2017-Mar-22 14:21 262 8 gusting 16 12.8
2017-Mar-22 14:06 346 5 gusting 9 13.3
2017-Mar-22 13:51 330 5 gusting 10 13.3
2017-Mar-22 13:36 292 3 gusting 9 13.9
2017-Mar-22 13:21 279 0 gusting 8 13.3
2017-Mar-22 13:06 336 2 gusting 8 13.9
2017-Mar-22 12:51 312 0 gusting 6 13.3
2017-Mar-22 12:36 284 1 gusting 6 12.8
2017-Mar-22 12:21 020 0 gusting 5 13.3
2017-Mar-22 12:06 321 4 gusting 8 12.2
2017-Mar-22 11:51 340 12.2
2017-Mar-22 11:36 340 2 gusting 6 11.7
2017-Mar-22 11:21 046 2 gusting 5 11.7
2017-Mar-22 11:06 170 2 gusting 5 11.1
2017-Mar-22 10:51 275 1 gusting 6 10.6
2017-Mar-22 10:36 275 10.6
2017-Mar-22 10:21 313 3 gusting 5 9.4
2017-Mar-22 10:06 299 3 gusting 8 9.4
2017-Mar-22 09:51 275 3 gusting 6 9.4
2017-Mar-22 09:35 323 0 gusting 5 10.0
2017-Mar-22 09:20 321 1 gusting 4 10.0
2017-Mar-22 09:05 306 8.9
2017-Mar-22 08:50 292 0 gusting 4 8.3
2017-Mar-22 08:35 292 8.3
2017-Mar-22 08:20 292 7.8
2017-Mar-22 08:05 284 3 gusting 7 7.8
2017-Mar-22 07:50 261 7.8
2017-Mar-22 07:35 261 8.3
2017-Mar-22 07:20 261 7.8
2017-Mar-22 07:05 255 1 gusting 6 7.8
2017-Mar-22 06:50 235 7.8
2017-Mar-22 06:35 235 7.2
2017-Mar-22 06:20 118 7.8
2017-Mar-22 06:05 040 7.8
2017-Mar-22 05:50 040 7.8
2017-Mar-22 05:35 040 8.3
2017-Mar-22 05:21 040 8.3
2017-Mar-22 05:05 040 8.9
2017-Mar-22 04:50 040 8.9
2017-Mar-22 04:35 040 8.9
2017-Mar-22 04:20 040 8.9
2017-Mar-22 04:05 040 0 gusting 4 8.9
2017-Mar-22 03:50 039 1 gusting 3 8.3
2017-Mar-22 03:35 024 7.8
2017-Mar-22 03:20 022 7.2
2017-Mar-22 03:05 022 7.8
2017-Mar-22 02:50 022 7.8
2017-Mar-22 02:35 022 8.3
2017-Mar-22 02:20 031 8.3
2017-Mar-22 02:05 031 8.9
2017-Mar-22 01:50 041 8.9
2017-Mar-22 01:35 338 8.9
2017-Mar-22 01:19 338 9.4
2017-Mar-22 01:04 338 9.4
2017-Mar-22 00:49 338 9.4
2017-Mar-22 00:34 337 9.4
2017-Mar-22 00:19 337 9.4
2017-Mar-22 00:04 323 9.4
2017-Mar-21 23:49 323 0 gusting 6 9.4
2017-Mar-21 23:34 328 3 gusting 8 10.0
2017-Mar-21 23:19 342 10.0
2017-Mar-21 23:04 341 2 gusting 4 10.0
2017-Mar-21 22:49 339 4 gusting 6 10.0
2017-Mar-21 22:34 341 2 gusting 6 10.0
2017-Mar-21 22:19 042 3 gusting 6 10.0
2017-Mar-21 22:04 049 4 gusting 8 10.0
2017-Mar-21 21:49 042 2 gusting 4 10.0
2017-Mar-21 21:34 033 2 gusting 6 10.0
2017-Mar-21 21:19 032 2 gusting 5 10.6
2017-Mar-21 21:04 041 3 gusting 8 10.6
2017-Mar-21 20:49 014 4 gusting 8 11.1
2017-Mar-21 20:34 022 3 gusting 6 11.1
2017-Mar-21 20:19 053 3 gusting 7 11.1
2017-Mar-21 20:04 052 0 gusting 7 11.1